2019-093N

Last updated on Mon Jan 20 2020 00:02:06 GMT+0000 (Coordinated Universal Time)

1 44891U 19093N 20019.55165418 .00000208 00000-0 30179-4 0 9999 2 44891 98.0304 96.9426 0023714 290.9492 68.9182 14.86131558 4437
UTC large
Height (km)
Speed (km/s)
/
Latitude / Longitude
Inclination (degrees)
Orbital Period (minutes)
Azimuth
Elevation
Range (km)
Doppler Factor

Next 0 passes for location: London (51.5072 / 0.1276)

Sorry there are no passes over London.